Hourly Weather Chagorta

Today, 15 June, Tuesday

Time Temperature Precipitation Wind Pressure Humidity
00:00 +20°C° 0 mm 2 mps 748 mmHg 85%
01:00 +19°C° 0 mm 2 mps 748 mmHg 88%
02:00 +19°C° 0 mm 2 mps 748 mmHg 91%
03:00 +19°C° 0 mm 2 mps 748 mmHg 92%
04:00 +19°C° 0 mm 3 mps 748 mmHg 90%
05:00 +20°C° 0 mm 3 mps 748 mmHg 88%
06:00 +20°C° 0 mm 3 mps 748 mmHg 86%
07:00 +23°C° 0 mm 2 mps 748 mmHg 78%
08:00 +24°C° 0 mm 2 mps 748 mmHg 70%
09:00 +25°C° 0 mm 1 mps 748 mmHg 62%
10:00 +26°C° 0 mm 1 mps 748 mmHg 57%
11:00 +28°C° 0 mm 1 mps 748 mmHg 52%
12:00 +27°C° 0 mm 0 mps 748 mmHg 46%
13:00 +29°C° 0 mm 1 mps 747 mmHg 44%
14:00 +30°C° 0 mm 1 mps 747 mmHg 42%
15:00 +31°C° 0 mm 1 mps 747 mmHg 40%
16:00 +30°C° 0 mm 1 mps 747 mmHg 41%
17:00 +30°C° 0 mm 1 mps 747 mmHg 42%
18:00 +30°C° 0 mm 2 mps 747 mmHg 42%
19:00 +29°C° 0 mm 2 mps 747 mmHg 47%
20:00 +28°C° 0 mm 2 mps 747 mmHg 51%
21:00 +27°C° 0 mm 2 mps 748 mmHg 56%
22:00 +26°C° 0 mm 2 mps 748 mmHg 58%
23:00 +25°C° 0 mm 2 mps 748 mmHg 61%

Tomorrow, 16 June, Wednesday

Time Temperature Precipitation Wind Pressure Humidity
00:00 +25°C° 0 mm 2 mps 748 mmHg 63%
01:00 +24°C° 0 mm 2 mps 748 mmHg 64%
02:00 +24°C° 0 mm 2 mps 748 mmHg 65%
03:00 +23°C° 0 mm 2 mps 748 mmHg 66%
04:00 +24°C° 0 mm 2 mps 748 mmHg 66%
05:00 +24°C° 0 mm 2 mps 748 mmHg 65%
06:00 +25°C° 0 mm 2 mps 748 mmHg 65%
07:00 +26°C° 0 mm 2 mps 748 mmHg 59%
08:00 +28°C° 0 mm 2 mps 749 mmHg 53%
09:00 +29°C° 0 mm 2 mps 749 mmHg 48%
10:00 +30°C° 0 mm 2 mps 749 mmHg 44%
11:00 +31°C° 0 mm 3 mps 748 mmHg 41%
12:00 +33°C° 0 mm 3 mps 748 mmHg 38%
13:00 +34°C° 0 mm 3 mps 748 mmHg 36%
14:00 +35°C° 0 mm 4 mps 748 mmHg 35%
15:00 +35°C° 0 mm 4 mps 748 mmHg 33%
16:00 +35°C° 0 mm 4 mps 747 mmHg 35%
17:00 +34°C° 0 mm 5 mps 747 mmHg 36%
18:00 +34°C° 0 mm 5 mps 747 mmHg 37%
19:00 +32°C° 0 mm 5 mps 747 mmHg 41%
20:00 +30°C° 0 mm 5 mps 747 mmHg 44%
21:00 +28°C° 0 mm 5 mps 747 mmHg 47%
22:00 +28°C° 0 mm 5 mps 747 mmHg 48%
23:00 +27°C° 0 mm 6 mps 747 mmHg 49%

Day after tomorrow, 17 June, Thursday

Time Temperature Precipitation Wind Pressure Humidity
00:00 +27°C° 0 mm 6 mps 747 mmHg 50%
01:00 +27°C° 0 mm 7 mps 747 mmHg 52%
02:00 +26°C° 0 mm 7 mps 747 mmHg 53%
03:00 +26°C° 0 mm 7 mps 747 mmHg 54%
04:00 +26°C° 0.1 mm 8 mps 747 mmHg 57%
05:00 +24°C° 0.1 mm 8 mps 747 mmHg 59%
06:00 +24°C° 0.1 mm 8 mps 747 mmHg 62%
07:00 +27°C° 0 mm 9 mps 747 mmHg 57%
08:00 +28°C° 0 mm 9 mps 747 mmHg 53%
09:00 +31°C° 0 mm 9 mps 747 mmHg 48%
10:00 +32°C° 0 mm 9 mps 747 mmHg 43%
11:00 +34°C° 0 mm 9 mps 747 mmHg 38%
12:00 +35°C° 0 mm 9 mps 747 mmHg 33%
13:00 +35°C° 0 mm 9 mps 747 mmHg 34%
14:00 +35°C° 0 mm 8 mps 747 mmHg 34%
15:00 +35°C° 0 mm 8 mps 747 mmHg 35%
16:00 +35°C° 0 mm 9 mps 747 mmHg 36%
17:00 +34°C° 0 mm 10 mps 746 mmHg 37%
18:00 +34°C° 0 mm 11 mps 746 mmHg 38%
19:00 +33°C° 0 mm 11 mps 747 mmHg 38%
20:00 +32°C° 0 mm 11 mps 747 mmHg 39%
21:00 +31°C° 0 mm 10 mps 748 mmHg 39%
22:00 +28°C° 0.4 mm 9 mps 748 mmHg 45%
23:00 +27°C° 0.4 mm 7 mps 748 mmHg 51%

18 June, Friday

Time Temperature Precipitation Wind Pressure Humidity
00:00 +24°C° 0.4 mm 6 mps 749 mmHg 57%
01:00 +24°C° 0.5 mm 6 mps 749 mmHg 61%
02:00 +24°C° 0.5 mm 6 mps 749 mmHg 64%
03:00 +23°C° 0.5 mm 6 mps 749 mmHg 67%
04:00 +23°C° 0.7 mm 6 mps 750 mmHg 69%
05:00 +23°C° 0.7 mm 6 mps 750 mmHg 71%
06:00 +23°C° 0.7 mm 7 mps 751 mmHg 73%
07:00 +24°C° 0.4 mm 7 mps 751 mmHg 69%
08:00 +26°C° 0.4 mm 7 mps 751 mmHg 64%
09:00 +27°C° 0.4 mm 8 mps 752 mmHg 60%
10:00 +28°C° 0.3 mm 8 mps 752 mmHg 56%
11:00 +29°C° 0.3 mm 8 mps 752 mmHg 52%
12:00 +32°C° 0.3 mm 9 mps 752 mmHg 48%
13:00 +31°C° 0.8 mm 9 mps 752 mmHg 49%
14:00 +31°C° 0.8 mm 9 mps 752 mmHg 49%
15:00 +31°C° 0.8 mm 9 mps 752 mmHg 49%
16:00 +29°C° 1.3 mm 9 mps 752 mmHg 51%
17:00 +28°C° 1.3 mm 8 mps 752 mmHg 53%
18:00 +27°C° 1.3 mm 8 mps 753 mmHg 55%
19:00 +24°C° 0.9 mm 8 mps 753 mmHg 58%
20:00 +23°C° 0.9 mm 8 mps 754 mmHg 61%
21:00 +22°C° 0.9 mm 8 mps 754 mmHg 64%
22:00 +22°C° 0.7 mm 7 mps 754 mmHg 64%
23:00 +21°C° 0.7 mm 7 mps 754 mmHg 63%

19 June, Saturday

Time Temperature Precipitation Wind Pressure Humidity
00:00 +21°C° 0.7 mm 6 mps 754 mmHg 63%
01:00 +21°C° 0.1 mm 7 mps 755 mmHg 60%
02:00 +20°C° 0.1 mm 7 mps 755 mmHg 57%
03:00 +20°C° 0.1 mm 8 mps 755 mmHg 55%
04:00 +20°C° 0 mm 8 mps 755 mmHg 56%
05:00 +20°C° 0 mm 8 mps 756 mmHg 57%
06:00 +20°C° 0 mm 8 mps 756 mmHg 59%
07:00 +22°C° 0 mm 8 mps 756 mmHg 54%
08:00 +23°C° 0 mm 9 mps 756 mmHg 49%
09:00 +26°C° 0 mm 9 mps 757 mmHg 43%
10:00 +27°C° 0 mm 9 mps 756 mmHg 41%
11:00 +28°C° 0 mm 9 mps 756 mmHg 38%
12:00 +29°C° 0 mm 9 mps 756 mmHg 35%
13:00 +31°C° 0 mm 9 mps 756 mmHg 34%
14:00 +31°C° 0 mm 9 mps 756 mmHg 33%
15:00 +32°C° 0 mm 8 mps 756 mmHg 32%
16:00 +31°C° 0 mm 8 mps 756 mmHg 33%
17:00 +31°C° 0 mm 8 mps 755 mmHg 34%
18:00 +29°C° 0 mm 7 mps 755 mmHg 35%
19:00 +28°C° 0 mm 7 mps 755 mmHg 36%
20:00 +26°C° 0 mm 7 mps 755 mmHg 36%
21:00 +24°C° 0 mm 7 mps 755 mmHg 37%
22:00 +23°C° 0 mm 7 mps 755 mmHg 37%
23:00 +23°C° 0 mm 7 mps 755 mmHg 36%

20 June, Sunday

Time Temperature Precipitation Wind Pressure Humidity
00:00 +22°C° 0 mm 7 mps 755 mmHg 35%
01:00 +22°C° 0 mm 7 mps 755 mmHg 38%
02:00 +21°C° 0 mm 6 mps 755 mmHg 40%
03:00 +21°C° 0 mm 6 mps 755 mmHg 43%
04:00 +21°C° 0 mm 7 mps 755 mmHg 44%
05:00 +21°C° 0 mm 7 mps 755 mmHg 46%
06:00 +21°C° 0 mm 7 mps 755 mmHg 48%
07:00 +23°C° 0 mm 8 mps 755 mmHg 43%
08:00 +27°C° 0 mm 9 mps 755 mmHg 38%
09:00 +29°C° 0 mm 9 mps 754 mmHg 33%
10:00 +32°C° 0 mm 10 mps 754 mmHg 30%
11:00 +33°C° 0 mm 10 mps 754 mmHg 27%
12:00 +36°C° 0 mm 10 mps 753 mmHg 24%
13:00 +37°C° 0 mm 10 mps 753 mmHg 24%
14:00 +37°C° 0 mm 10 mps 753 mmHg 23%
15:00 +38°C° 0 mm 10 mps 752 mmHg 22%
16:00 +37°C° 0 mm 9 mps 752 mmHg 25%
17:00 +35°C° 0 mm 9 mps 752 mmHg 27%
18:00 +34°C° 0 mm 8 mps 752 mmHg 30%
19:00 +32°C° 0 mm 8 mps 753 mmHg 31%
20:00 +29°C° 0 mm 7 mps 753 mmHg 33%
21:00 +28°C° 0 mm 7 mps 753 mmHg 35%
22:00 +27°C° 0 mm 6 mps 753 mmHg 36%
23:00 +26°C° 0 mm 6 mps 753 mmHg 37%
Show more

We Need Your Consent

Meteoprog and our Service Providers may store and access personal data such as cookies, device identifiers or other similar technologies on your device and process such data to personalise content and ads, as well as provide social media features and to analyse the traffic.

  • Store and/or access information on your device

    Cookies, device identifiers or other information can be stored or accessed on your device for the purposes indicated above.

  • Personalised ads and content, ad and content measurement, audience insights, and products development

    Ads and content can be personalised based on a profile. More data can be added to better personalise ads and content. Ad and content performance can be measured. Insights about the audience who saw the ads and content can be derived. Such data can be used to develop or improve user’s experience, systems and software.

By clicking ‘I Agree’ you will allow the use of indicated cookies, device identifiers, web beacons or other similar technologies. Your settings can be changed in the browser on your device.

For certain purposes, legitimate interests may be relied on, rather than consent. You can read more about this in our Privacy and Cookie Policy.